Location: Central Falls
(41.8900°N, 71.3929°W)
Time: 06:03:35
(UTC+00:00)

Vanguard 3 - Pass Details

Date: 05 December 2023
Orbit: 508 x 3239 km, 33.4° (Epoch: 01 March)

Event Time Altitude Azimuth Distance (km) Brightness Sun altitude
Rises 23:01:27 0° 195° (SSW) 7,064 12.3 -19.3°
Reaches altitude 10° 23:09:21 10° 178° (S) 5,708 11.6 -20.7°
Maximum altitude 23:17:41 16° 148° (SSE) 4,650 10.8 -22.2°
Enters shadow 23:22:32 13° 125° (SE) 4,470 10.5 -23.1°
